Location: Kermapucano
(48.0667°N, 3.3000°W)
Time: 20:33:10
(UTC+00:00)

ADEOS - Pass Details

Date: 29 November 2020
Orbit: 792 x 795 km, 98.9° (Epoch: 27 January)

Event Time Altitude Azimuth Distance (km) Brightness Sun altitude
Rises 04:26:50 0° 19° (NNE) 3,310 7.0 -31.5°
Reaches altitude 10° 04:29:17 10° 26° (NNE) 2,375 6.3 -31.1°
Maximum altitude 04:34:19 46° 99° (E) 1,061 4.5 -30.3°
Drops below altitude 10° 04:39:19 10° 173° (S) 2,356 6.1 -29.4°
Sets 04:41:43 0° 179° (S) 3,281 6.8 -29.0°
